Change the Weather History Date:

Monday, February 11, 2013

  Actual Average (KBAD) Record (KBAD)
Temperature  
Mean Temperature 54 °F -  
Max Temperature 59 °F 57 °F 78 °F (2000)
Min Temperature 48 °F 39 °F 17 °F (2011)
Degree Days  
Heating Degree Days 12    
Growing Degree Days 4 (Base 50)    
Moisture  
Dew Point 43 °F    
Average Humidity 72    
Maximum Humidity 89    
Minimum Humidity 49    
Precipitation  
Precipitation 0.12 in - - ()
Sea Level Pressure  
Sea Level Pressure 30.11 in    
Wind  
Wind Speed 3 mph (ENE)    
Max Wind Speed 13 mph    
Max Gust Speed 17 mph    
Visibility 10 miles    
Events Rain    
Averages and records for this station are not official NWS values.
T = Trace of Precipitation, MM = Missing Value Source: NWS Daily Summary

Daily Weather History Graph

Daily Weather History Graph

Search for Another Location

Airport or City:

Trip Planner

Search our weather history database for the weather conditions in past years. The results will help you decide how hot, cold, wet, or windy it might be!

Date:

Astronomy

Feb. 11, 2013 Rise Set
Actual Time 6:59 AM CST 5:55 PM CST
Civil Twilight 6:34 AM CST 6:20 PM CST
Nautical Twilight 6:05 AM CST 6:49 PM CST
Astronomical Twilight 5:36 AM CST 7:18 PM CST
Moon 7:32 AM CST (2/11) 7:43 PM CST (2/11)
Length of Visible Light 11h 46m
Length of Day
10h 55m
Waxing Crescent, 3% of the Moon is Illuminated
Feb 11
Waxing Crescent
Feb 17
First Quarter
Feb 25
Full
Mar 4
Last Quarter
Mar 11
New

Hourly Weather History & Observations

Time (CST) Temp. Dew Point Humidity Pressure Visibility Wind Dir Wind Speed Gust Speed Precip Events Conditions
12:15 AM 53.6 °F 42.4 °F 66% 30.01 in - Calm Calm - N/A   Clear
12:35 AM 53.1 °F 45.1 °F 74% 30.03 in - Calm Calm - N/A   Clear
12:55 AM 53.6 °F 44.2 °F 71% 30.03 in - Calm Calm - N/A   Clear
1:15 AM 52.9 °F 43.2 °F 70% 30.04 in 10.0 mi Calm Calm - N/A   Clear
1:35 AM 52.2 °F 46.8 °F 82% 30.06 in 10.0 mi Calm Calm - N/A   Clear
1:55 AM 52.3 °F 45.0 °F 76% 30.06 in 10.0 mi Calm Calm - N/A   Mostly Cloudy
2:15 AM 52.3 °F 45.3 °F 77% 30.06 in 10.0 mi North 4.6 mph - N/A   Overcast
2:35 AM 53.6 °F 43.5 °F 69% 30.06 in 10.0 mi Calm Calm - N/A   Overcast
2:55 AM 53.6 °F 40.1 °F 60% 30.06 in 10.0 mi North 3.5 mph - N/A   Scattered Clouds
3:15 AM 53.4 °F 39.9 °F 60% 30.06 in 10.0 mi Calm Calm - N/A   Scattered Clouds
3:35 AM 52.9 °F 44.4 °F 73% 30.06 in 10.0 mi Calm Calm - N/A   Mostly Cloudy
3:55 AM 53.8 °F 43.3 °F 68% 30.07 in 10.0 mi Calm Calm - N/A Rain Light Rain
4:15 AM 52.3 °F 42.8 °F 70% 30.07 in 10.0 mi Calm Calm - N/A   Overcast
4:35 AM 53.6 °F 40.3 °F 61% 30.08 in 10.0 mi North 3.5 mph - N/A Rain Light Rain
4:55 AM 54.5 °F 37.2 °F 52% 30.09 in 10.0 mi NNE 4.6 mph - N/A Rain Light Rain
5:15 AM 54.0 °F 36.3 °F 51% 30.09 in 10.0 mi NNE 4.6 mph - N/A   Overcast
5:35 AM 52.9 °F 37.8 °F 56% 30.09 in 10.0 mi ENE 3.5 mph - N/A Rain Light Rain
5:55 AM 51.3 °F 39.2 °F 63% 30.09 in 10.0 mi Calm Calm - 0.01 in Rain Light Rain
6:15 AM 49.5 °F 40.8 °F 72% 30.10 in 10.0 mi Calm Calm - 0.01 in Rain Light Rain
6:35 AM 48.9 °F 43.3 °F 81% 30.14 in 10.0 mi NNW 3.5 mph - 0.01 in Rain Light Rain
6:55 AM 48.4 °F 42.6 °F 80% 30.12 in 10.0 mi Calm Calm - 0.01 in Rain Light Rain
7:15 AM 48.7 °F 43.7 °F 83% 30.12 in 10.0 mi Calm Calm - N/A Rain Light Rain
7:35 AM 48.4 °F 42.6 °F 80% 30.11 in 10.0 mi East 4.6 mph - 0.02 in Rain Light Rain
7:55 AM 48.6 °F 42.6 °F 80% 30.13 in 10.0 mi East 4.6 mph - 0.02 in   Light Drizzle
8:15 AM 48.6 °F 42.3 °F 79% 30.14 in 10.0 mi East 4.6 mph - N/A Rain Rain
8:35 AM 48.4 °F 42.6 °F 80% 30.15 in 10.0 mi Calm Calm - 0.01 in Rain Light Rain
8:55 AM 48.2 °F 43.5 °F 84% 30.16 in 10.0 mi Calm Calm - 0.01 in Rain Light Rain
9:15 AM 49.3 °F 43.0 °F 79% 30.15 in 10.0 mi ENE 3.5 mph - N/A   Scattered Clouds
9:35 AM 50.4 °F 42.3 °F 74% 30.15 in 10.0 mi East 5.8 mph - N/A   Clear
9:55 AM 50.9 °F 41.9 °F 71% 30.15 in 10.0 mi ENE 5.8 mph - N/A   Clear
10:15 AM 52.0 °F 41.7 °F 68% 30.15 in 10.0 mi ENE 9.2 mph - N/A   Clear
10:35 AM 52.7 °F 40.3 °F 63% 30.16 in 10.0 mi East 8.1 mph 17.3 mph N/A   Clear
10:55 AM 53.6 °F 40.6 °F 62% 30.15 in 10.0 mi East 12.7 mph 16.1 mph N/A   Scattered Clouds
11:15 AM 54.1 °F 39.7 °F 58% 30.17 in 10.0 mi ENE 9.2 mph 16.1 mph N/A   Mostly Cloudy
11:35 AM 54.0 °F 40.3 °F 60% 30.17 in 10.0 mi ENE 5.8 mph - N/A   Mostly Cloudy
11:55 AM 55.6 °F 41.2 °F 58% 30.16 in 10.0 mi East 8.1 mph - N/A   Mostly Cloudy
12:15 PM 55.8 °F 40.5 °F 56% 30.16 in 10.0 mi NE 6.9 mph - N/A   Clear
12:35 PM 58.5 °F 41.0 °F 52% 30.13 in 10.0 mi NE 9.2 mph - N/A   Clear
12:55 PM 57.2 °F 38.7 °F 50% 30.16 in 10.0 mi East 9.2 mph - N/A   Mostly Cloudy
1:15 PM 57.9 °F 40.5 °F 52% 30.14 in 10.0 mi ENE 6.9 mph - N/A   Overcast
1:35 PM 58.3 °F 40.6 °F 52% 30.12 in 10.0 mi NE 5.8 mph - N/A   Mostly Cloudy
1:55 PM 58.5 °F 39.9 °F 50% 30.12 in 10.0 mi NE 8.1 mph - N/A   Mostly Cloudy
2:15 PM 59.0 °F 39.9 °F 49% 30.12 in 10.0 mi ENE 5.8 mph - N/A   Mostly Cloudy
2:35 PM 58.6 °F 40.1 °F 50% 30.12 in 10.0 mi ENE 6.9 mph - N/A   Overcast
2:55 PM 58.1 °F 39.7 °F 50% 30.12 in 10.0 mi East 5.8 mph - N/A   Overcast
3:15 PM 57.6 °F 40.1 °F 52% 30.10 in 10.0 mi ENE 5.8 mph - N/A   Overcast
3:35 PM 57.7 °F 41.7 °F 55% 30.11 in 10.0 mi ESE 6.9 mph - N/A   Overcast
3:55 PM 56.3 °F 42.6 °F 60% 30.11 in 10.0 mi ESE 5.8 mph - N/A   Overcast
4:55 PM 53.8 °F 45.9 °F 75% 30.09 in 10.0 mi East 4.6 mph - N/A   Overcast
5:15 PM 53.6 °F 45.9 °F 75% 30.08 in 10.0 mi ENE 4.6 mph - N/A   Overcast
5:35 PM 53.1 °F 46.4 °F 78% 30.12 in 10.0 mi SE 3.5 mph - N/A   Light Drizzle
5:55 PM 52.9 °F 46.4 °F 79% 30.11 in 10.0 mi East 3.5 mph - N/A   Overcast
6:15 PM 52.7 °F 46.6 °F 80% 30.12 in 10.0 mi Calm Calm - N/A Rain Light Rain
6:35 PM 52.5 °F 46.8 °F 81% 30.12 in 10.0 mi Calm Calm - N/A Rain Rain
6:55 PM 51.6 °F 47.3 °F 85% 30.10 in 10.0 mi East 3.5 mph - N/A Rain Light Rain
7:15 PM 51.8 °F 47.8 °F 86% 30.13 in 10.0 mi SSE 3.5 mph - 0.01 in Rain Light Rain
7:35 PM 51.3 °F 47.5 °F 87% 30.12 in 10.0 mi ESE 4.6 mph - 0.01 in Rain Light Rain
7:55 PM 50.9 °F 47.3 °F 87% 30.14 in 10.0 mi Calm Calm - 0.02 in   Overcast
8:15 PM 50.9 °F 47.3 °F 87% 30.12 in 10.0 mi Calm Calm - N/A Rain Light Rain
8:35 PM 50.9 °F 46.9 °F 86% 30.12 in 10.0 mi ENE 4.6 mph - N/A   Overcast
8:55 PM 50.5 °F 47.3 °F 89% 30.16 in 10.0 mi Calm Calm - N/A Rain Light Rain
9:15 PM 50.0 °F 46.9 °F 89% 30.14 in 10.0 mi Calm Calm - 0.01 in Rain Light Rain
9:35 PM 50.0 °F 46.6 °F 88% 30.14 in 10.0 mi Calm Calm - 0.01 in   Overcast
9:55 PM 50.0 °F 46.6 °F 88% 30.15 in 10.0 mi Calm Calm - 0.01 in Rain Light Rain
10:15 PM 49.8 °F 46.6 °F 89% 30.13 in 10.0 mi East 3.5 mph - 0.01 in Rain Light Rain
10:35 PM 49.6 °F 46.4 °F 89% 30.14 in 10.0 mi Calm Calm - 0.02 in Rain Light Rain
10:55 PM 49.6 °F 46.4 °F 89% 30.15 in 10.0 mi Calm Calm - 0.03 in Rain Light Rain
11:15 PM 49.3 °F 46.2 °F 89% 30.12 in 10.0 mi East 3.5 mph - N/A   Overcast
11:35 PM 49.3 °F 46.2 °F 89% 30.11 in 10.0 mi East 6.9 mph - N/A Rain Light Rain
11:55 PM 49.5 °F 45.3 °F 86% 30.12 in 10.0 mi ESE 3.5 mph - 0.01 in Rain Light Rain